• In Netherlands
  • List of Countries
  • For 7 days
  • Water Temperature
  • Satellite Maps
  • Weather Map
  • Weather Widgets
  • user-avatar
    Login

    Hourly Weather Kranevo

    Today, 21 January, Sunday

    Time Temperature Precipitation Wind Pressure Humidity
    00:00 0°C° 0.5 mm 5 mps 753 mmHg 93%
    01:00 0°C° 0.5 mm 5 mps 753 mmHg 93%
    02:00 0°C° 0.5 mm 5 mps 753 mmHg 93%
    03:00 0°C° 0 mm 4 mps 754 mmHg 94%
    04:00 -1°C° 0 mm 4 mps 754 mmHg 94%
    05:00 0°C° 0 mm 3 mps 755 mmHg 95%
    06:00 0°C° 0 mm 3 mps 755 mmHg 95%
    07:00 +1°C° 0 mm 2 mps 755 mmHg 94%
    08:00 +1°C° 0 mm 2 mps 755 mmHg 94%
    09:00 0°C° 0 mm 3 mps 755 mmHg 93%
    10:00 +1°C° 0 mm 3 mps 755 mmHg 92%
    11:00 +1°C° 0 mm 4 mps 754 mmHg 90%
    12:00 +1°C° 0.2 mm 4 mps 754 mmHg 91%
    13:00 +2°C° 0.2 mm 5 mps 753 mmHg 91%
    14:00 +2°C° 0.2 mm 5 mps 752 mmHg 92%
    15:00 +2°C° 0.5 mm 5 mps 752 mmHg 93%
    16:00 +2°C° 0.5 mm 5 mps 751 mmHg 95%
    17:00 +3°C° 0.5 mm 6 mps 751 mmHg 96%
    18:00 +3°C° 0.7 mm 5 mps 750 mmHg 97%
    19:00 +3°C° 0.7 mm 5 mps 749 mmHg 97%
    20:00 +4°C° 0.7 mm 4 mps 749 mmHg 97%
    21:00 +4°C° 0.6 mm 4 mps 748 mmHg 98%
    22:00 +5°C° 0.6 mm 4 mps 748 mmHg 98%
    23:00 +5°C° 0.6 mm 3 mps 747 mmHg 98%

    Tomorrow, 22 January, Monday

    Time Temperature Precipitation Wind Pressure Humidity
    00:00 +5°C° 1.7 mm 3 mps 746 mmHg 98%
    01:00 +5°C° 1.7 mm 4 mps 746 mmHg 98%
    02:00 +6°C° 1.7 mm 4 mps 745 mmHg 98%
    03:00 +6°C° 1.4 mm 4 mps 745 mmHg 98%
    04:00 +5°C° 1.4 mm 5 mps 745 mmHg 97%
    05:00 +5°C° 1.4 mm 5 mps 744 mmHg 97%
    06:00 +4°C° 0.3 mm 6 mps 744 mmHg 96%
    07:00 +4°C° 0.3 mm 7 mps 744 mmHg 95%
    08:00 +3°C° 0.3 mm 7 mps 745 mmHg 94%
    09:00 +2°C° 0.2 mm 8 mps 745 mmHg 93%
    10:00 +2°C° 0.2 mm 8 mps 745 mmHg 91%
    11:00 +2°C° 0.2 mm 9 mps 746 mmHg 90%
    12:00 +1°C° 0.1 mm 9 mps 746 mmHg 89%
    13:00 +1°C° 0.1 mm 10 mps 746 mmHg 88%
    14:00 -1°C° 0.1 mm 11 mps 746 mmHg 87%
    15:00 -1°C° 0.1 mm 11 mps 747 mmHg 86%
    16:00 -2°C° 0.1 mm 11 mps 748 mmHg 86%
    17:00 -3°C° 0.1 mm 12 mps 748 mmHg 86%
    18:00 -3°C° 0 mm 12 mps 749 mmHg 85%
    19:00 -3°C° 0 mm 11 mps 750 mmHg 84%
    20:00 -3°C° 0 mm 11 mps 751 mmHg 83%
    21:00 -3°C° 0 mm 11 mps 752 mmHg 83%
    22:00 -3°C° 0 mm 11 mps 753 mmHg 82%
    23:00 -4°C° 0 mm 11 mps 753 mmHg 82%

    Day after tomorrow, 23 January, Tuesday

    Time Temperature Precipitation Wind Pressure Humidity
    00:00 -4°C° 0 mm 11 mps 754 mmHg 82%
    01:00 -4°C° 0 mm 11 mps 754 mmHg 82%
    02:00 -4°C° 0 mm 11 mps 755 mmHg 82%
    03:00 -5°C° 0 mm 10 mps 756 mmHg 81%
    04:00 -5°C° 0 mm 10 mps 756 mmHg 81%
    05:00 -5°C° 0 mm 10 mps 757 mmHg 81%
    06:00 -5°C° 0 mm 10 mps 757 mmHg 80%
    07:00 -7°C° 0 mm 10 mps 758 mmHg 80%
    08:00 -7°C° 0 mm 10 mps 759 mmHg 79%
    09:00 -5°C° 0 mm 10 mps 759 mmHg 75%
    10:00 -4°C° 0 mm 10 mps 760 mmHg 71%
    11:00 -4°C° 0 mm 10 mps 760 mmHg 67%
    12:00 -3°C° 0 mm 10 mps 761 mmHg 65%
    13:00 -3°C° 0 mm 10 mps 761 mmHg 62%
    14:00 -2°C° 0 mm 10 mps 762 mmHg 59%
    15:00 -3°C° 0 mm 9 mps 762 mmHg 60%
    16:00 -4°C° 0 mm 9 mps 762 mmHg 61%
    17:00 -4°C° 0 mm 9 mps 763 mmHg 62%
    18:00 -5°C° 0 mm 9 mps 764 mmHg 62%
    19:00 -5°C° 0 mm 9 mps 764 mmHg 62%
    20:00 -6°C° 0 mm 9 mps 765 mmHg 62%
    21:00 -6°C° 0 mm 9 mps 765 mmHg 61%
    22:00 -6°C° 0 mm 9 mps 766 mmHg 60%
    23:00 -8°C° 0 mm 9 mps 766 mmHg 59%

    24 January, Wednesday

    Time Temperature Precipitation Wind Pressure Humidity
    00:00 -8°C° 0 mm 9 mps 767 mmHg 59%
    01:00 -8°C° 0 mm 9 mps 767 mmHg 59%
    02:00 -8°C° 0 mm 9 mps 767 mmHg 58%
    03:00 -8°C° 0 mm 9 mps 767 mmHg 57%
    04:00 -8°C° 0 mm 9 mps 767 mmHg 56%
    05:00 -7°C° 0 mm 8 mps 768 mmHg 55%
    06:00 -7°C° 0 mm 8 mps 768 mmHg 54%
    07:00 -7°C° 0 mm 8 mps 768 mmHg 53%
    08:00 -7°C° 0 mm 8 mps 768 mmHg 52%
    09:00 -6°C° 0 mm 9 mps 769 mmHg 49%
    10:00 -5°C° 0 mm 9 mps 769 mmHg 46%
    11:00 -4°C° 0 mm 9 mps 769 mmHg 43%
    12:00 -4°C° 0 mm 9 mps 768 mmHg 43%
    13:00 -3°C° 0 mm 9 mps 768 mmHg 43%
    14:00 -2°C° 0 mm 8 mps 768 mmHg 43%
    15:00 -2°C° 0 mm 8 mps 768 mmHg 48%
    16:00 -4°C° 0 mm 8 mps 767 mmHg 53%
    17:00 -4°C° 0 mm 7 mps 767 mmHg 58%
    18:00 -4°C° 0 mm 7 mps 767 mmHg 62%
    19:00 -4°C° 0 mm 7 mps 767 mmHg 67%
    20:00 -6°C° 0 mm 7 mps 767 mmHg 71%
    21:00 -6°C° 0 mm 7 mps 767 mmHg 72%
    22:00 -6°C° 0 mm 7 mps 767 mmHg 74%
    23:00 -6°C° 0 mm 7 mps 767 mmHg 75%

    25 January, Thursday

    Time Temperature Precipitation Wind Pressure Humidity
    00:00 -6°C° 0.1 mm 8 mps 767 mmHg 76%
    01:00 -7°C° 0.1 mm 8 mps 766 mmHg 77%
    02:00 -8°C° 0.1 mm 9 mps 766 mmHg 77%
    03:00 -7°C° 0.1 mm 8 mps 766 mmHg 78%
    04:00 -7°C° 0.1 mm 8 mps 766 mmHg 79%
    05:00 -8°C° 0.1 mm 8 mps 766 mmHg 80%
    06:00 -8°C° 0 mm 8 mps 766 mmHg 80%
    07:00 -8°C° 0 mm 8 mps 766 mmHg 81%
    08:00 -8°C° 0 mm 7 mps 766 mmHg 81%
    09:00 -7°C° 0 mm 7 mps 766 mmHg 79%
    10:00 -7°C° 0 mm 7 mps 766 mmHg 76%
    11:00 -6°C° 0 mm 7 mps 766 mmHg 74%
    12:00 -4°C° 0 mm 7 mps 766 mmHg 75%
    13:00 -4°C° 0 mm 7 mps 766 mmHg 76%
    14:00 -3°C° 0 mm 7 mps 766 mmHg 77%
    15:00 -3°C° 0.1 mm 7 mps 766 mmHg 79%
    16:00 -3°C° 0.1 mm 7 mps 766 mmHg 81%
    17:00 -2°C° 0.1 mm 6 mps 766 mmHg 84%
    18:00 -2°C° 0.1 mm 6 mps 766 mmHg 84%
    19:00 -2°C° 0.1 mm 6 mps 767 mmHg 85%
    20:00 -2°C° 0.1 mm 6 mps 767 mmHg 86%
    21:00 -2°C° 0 mm 6 mps 767 mmHg 87%
    22:00 -3°C° 0 mm 6 mps 767 mmHg 88%
    23:00 -3°C° 0 mm 6 mps 767 mmHg 89%

    26 January, Friday

    Time Temperature Precipitation Wind Pressure Humidity
    00:00 -3°C° 0 mm 6 mps 767 mmHg 89%
    01:00 -3°C° 0 mm 6 mps 767 mmHg 90%
    02:00 -3°C° 0 mm 7 mps 767 mmHg 91%
    03:00 -4°C° 0 mm 7 mps 767 mmHg 91%
    04:00 -4°C° 0 mm 7 mps 767 mmHg 91%
    05:00 -4°C° 0 mm 7 mps 767 mmHg 91%
    06:00 -4°C° 0 mm 7 mps 767 mmHg 91%
    07:00 -4°C° 0 mm 7 mps 767 mmHg 90%
    08:00 -4°C° 0 mm 7 mps 767 mmHg 90%
    09:00 -3°C° 0 mm 7 mps 767 mmHg 87%
    10:00 -3°C° 0 mm 7 mps 767 mmHg 85%
    11:00 -2°C° 0 mm 7 mps 767 mmHg 83%
    12:00 -2°C° 0 mm 7 mps 767 mmHg 81%
    13:00 -2°C° 0 mm 7 mps 767 mmHg 80%
    14:00 -1°C° 0 mm 7 mps 766 mmHg 78%
    15:00 -2°C° 0 mm 7 mps 766 mmHg 80%
    16:00 -2°C° 0 mm 6 mps 766 mmHg 81%
    17:00 -3°C° 0 mm 6 mps 767 mmHg 83%
    18:00 -3°C° 0 mm 6 mps 767 mmHg 84%
    19:00 -4°C° 0 mm 5 mps 767 mmHg 86%
    20:00 -4°C° 0 mm 5 mps 767 mmHg 88%
    21:00 -4°C° 0 mm 5 mps 767 mmHg 89%
    22:00 -5°C° 0 mm 5 mps 767 mmHg 90%
    23:00 -5°C° 0 mm 5 mps 768 mmHg 91%
    Show more